KD0NNG Weather Reports


Display with metric or nautical units.
time (UTC)temp
F
wind
direction
speed
MPH
gust
MPH
rain 1hr
in
rain 24hr
in
rain mn
in
humidity
%
barometer
mb
20190422124319 45 49 5.0 23.0 0.00 0.00 0.23 96 1013.1
20190422123318 45 49 19.0 25.0 0.00 0.00 0.21 96 1013.2
20190422122317 44 19 9.0 14.0 0.00 0.00 0.19 96 1015.4
20190422121316 45 360 13.0 14.0 0.00 0.00 0.15 95 1015.9
20190422120315 45 267 2.0 10.0 0.00 0.00 0.13 95 1017.5
20190422115314 45 246 1.0 10.0 0.00 0.00 0.12 95 1017.1
20190422114313 45 38 9.0 11.0 0.00 0.00 0.12 96 1014.8
20190422113312 45 33 4.0 11.0 0.00 0.00 0.12 96 1014.5
20190422112311 45 38 10.0 13.0 0.00 0.00 0.12 96 1014.4
20190422111310 45 360 6.0 14.0 0.00 0.00 0.12 96 1014.3
20190422110309 45 15 4.0 10.0 0.00 0.00 0.12 96 1014.3
20190422105308 45 31 9.0 11.0 0.00 0.00 0.12 95 1014.0
20190422104307 44 71 4.0 13.0 0.00 0.00 0.12 95 1014.1
20190422103306 45 5 4.0 11.0 0.00 0.00 0.12 95 1014.2
20190422102306 44 49 5.0 12.0 0.00 0.00 0.12 95 1014.2
20190422101304 44 42 3.0 13.0 0.00 0.00 0.12 95 1014.4
20190422100303 45 355 8.0 12.0 0.00 0.00 0.12 95 1014.3
20190422095305 44 9 9.0 14.0 0.00 0.00 0.12 95 1014.2
20190422094301 44 55 5.0 13.0 0.00 0.00 0.12 95 1014.3
20190422093300 45 14 7.0 12.0 0.00 0.00 0.12 95 1014.5
20190422092259 45 22 6.0 10.0 0.00 0.00 0.12 94 1014.7
20190422091258 45 360 4.0 15.0 0.00 0.00 0.09 94 1014.6
20190422090257 45 11 5.0 11.0 0.00 0.00 0.09 94 1014.7
20190422085256 45 28 6.0 11.0 0.00 0.00 0.09 93 1014.6
20190422084255 45 38 3.0 13.0 0.00 0.00 0.09 93 1014.5
20190422083254 45 24 8.0 14.0 0.00 0.00 0.09 93 1014.3
20190422082254 45 16 7.0 15.0 0.00 0.00 0.08 92 1014.3
20190422081252 45 355 3.0 14.0 0.00 0.00 0.07 91 1014.3
20190422080251 46 19 7.0 14.0 0.00 0.00 0.04 90 1014.3
20190422075250 46 337 4.0 13.0 0.00 0.00 0.01 88 1014.8
20190422074249 46 20 5.0 12.0 0.00 0.00 0.00 87 1014.7
20190422073248 46 20 7.0 12.0 0.00 0.00 0.00 86 1014.7
20190422072247 46 12 10.0 14.0 0.00 0.00 0.00 85 1014.3
20190422071246 47 43 5.0 12.0 0.00 0.00 0.00 85 1014.4
20190422070245 47 15 5.0 14.0 0.00 0.00 0.00 85 1014.5
20190422065244 46 32 8.0 13.0 0.00 0.00 0.00 84 1014.4
20190422064243 46 22 6.0 14.0 0.00 0.00 0.00 84 1014.6
20190422063242 46 17 9.0 15.0 0.00 0.00 0.00 84 1014.4
20190422062240 47 48 9.0 13.0 0.00 0.00 0.00 84 1014.5
20190422061239 47 34 4.0 14.0 0.00 0.00 0.00 84 1014.3
20190422060239 47 42 14.0 14.0 0.00 0.00 0.00 84 1014.1
20190422055238 47 24 8.0 12.0 0.00 0.00 0.00 83 1014.1
20190422054237 47 53 5.0 11.0 0.00 0.00 0.00 83 1013.9
20190422053235 47 30 9.0 14.0 0.00 0.00 0.00 83 1014.1
20190422052234 47 59 4.0 16.0 0.00 0.00 0.00 83 1014.2
20190422051233 48 42 1.0 12.0 0.00 0.00 0.00 83 1014.6
20190422050233 48 17 7.0 15.0 0.00 0.00 0.00 82 1014.3
20190422045231 48 22 8.0 11.0 0.00 0.00 0.00 83 1014.5
20190422044230 48 42 2.0 16.0 0.00 0.00 0.00 83 1014.9
20190422043229 48 16 7.0 16.0 0.00 0.00 0.00 82 1014.2
20190422042228 48 19 5.0 14.0 0.00 0.00 0.00 82 1014.4
20190422041227 48 30 0.0 13.0 0.00 0.00 0.00 83 1014.5
20190422040226 48 45 4.0 16.0 0.00 0.00 0.00 82 1014.5
20190422035225 48 15 7.0 14.0 0.00 0.00 0.00 81 1014.6
20190422034224 48 32 5.0 16.0 0.00 0.00 0.00 81 1014.6
20190422033223 48 38 6.0 13.0 0.00 0.00 0.00 81 1014.5
20190422032222 48 32 8.0 17.0 0.00 0.00 0.00 80 1014.4
20190422031221 48 40 7.0 15.0 0.00 0.00 0.00 80 1014.1
20190422030220 49 22 15.0 17.0 0.00 0.00 0.00 79 1014.0
20190422025219 49 20 7.0 16.0 0.00 0.00 0.00 78 1014.0
20190422024218 50 346 6.0 16.0 0.00 0.00 0.00 77 1014.0
20190422023217 50 23 9.0 20.0 0.00 0.00 0.00 77 1013.8
20190422022216 51 28 9.0 20.0 0.00 0.00 0.00 76 1013.7
20190422021215 51 25 16.0 21.0 0.00 0.00 0.00 76 1013.4
20190422020214 52 20 4.0 21.0 0.00 0.00 0.00 75 1013.2
20190422015213 52 47 14.0 17.0 0.00 0.00 0.00 74 1013.1
20190422014212 53 18 13.0 19.0 0.00 0.00 0.00 73 1012.8
20190422013211 53 21 8.0 21.0 0.00 0.00 0.00 73 1012.7
20190422012212 54 11 14.0 22.0 0.00 0.00 0.00 72 1012.5
20190422011209 54 17 12.0 17.0 0.00 0.00 0.00 72 1012.4
20190422010208 55 9 12.0 18.0 0.00 0.00 0.00 70 1012.2
20190422005207 56 15 13.0 18.0 0.00 0.00 0.00 70 1012.0
20190422004206 57 355 12.0 19.0 0.00 0.00 0.00 69 1011.8
20190422003205 58 31 14.0 21.0 0.00 0.00 0.00 68 1011.5
20190422002204 59 15 14.0 19.0 0.00 0.00 0.00 66 1011.2
20190422001203 60 22 13.0 21.0 0.00 0.00 0.00 65 1011.0
20190422000202 61 24 9.0 21.0 0.00 0.00 0.00 63 1010.8
20190421235201 62 355 9.0 21.0 0.00 0.00 0.00 61 1010.6
20190421234200 63 18 13.0 18.0 0.00 0.00 0.00 60 1010.6
20190421233159 65 38 4.0 18.0 0.00 0.00 0.00 57 1010.5
20190421232158 66 5 16.0 19.0 0.00 0.00 0.00 55 1010.2
20190421231157 67 71 10.0 22.0 0.00 0.00 0.00 54 1010.0
20190421230156 68 55 7.0 17.0 0.00 0.00 0.00 51 1009.9
20190421225155 69 20 7.0 14.0 0.00 0.00 0.00 49 1009.8
20190421224154 68 49 7.0 17.0 0.00 0.00 0.00 48 1009.8
20190421223153 68 69 11.0 17.0 0.00 0.00 0.00 48 1009.7
20190421222152 68 45 10.0 16.0 0.00 0.00 0.00 49 1009.7
20190421221151 68 14 9.0 16.0 0.00 0.00 0.00 49 1009.7
20190421220150 68 360 8.0 16.0 0.00 0.00 0.00 51 1009.7
20190421215149 67 11 9.0 17.0 0.00 0.00 0.00 51 1009.6
20190421214148 67 346 8.0 18.0 0.00 0.00 0.00 51 1009.6
20190421213147 68 32 5.0 17.0 0.00 0.00 0.00 50 1009.7
20190421212146 69 27 8.0 15.0 0.00 0.00 0.00 50 1009.6
20190421211145 69 5 11.0 15.0 0.00 0.00 0.00 48 1009.6
20190421210144 70 11 3.0 14.0 0.00 0.00 0.00 45 1009.6
20190421205143 70 28 8.0 13.0 0.00 0.00 0.00 46 1009.7
20190421204142 70 35 5.0 14.0 0.00 0.00 0.00 46 1009.6
20190421203141 69 78 9.0 13.0 0.00 0.00 0.00 47 1009.7
20190421202140 69 42 2.0 13.0 0.00 0.00 0.00 47 1009.5
20190421201139 69 37 7.0 14.0 0.00 0.00 0.00 46 1009.5
20190421200138 68 28 6.0 15.0 0.00 0.00 0.00 48 1009.5
20190421195137 68 57 3.0 12.0 0.00 0.00 0.00 47 1009.5
20190421194136 68 22 9.0 13.0 0.00 0.00 0.00 46 1009.6
20190421193135 69 29 3.0 15.0 0.00 0.00 0.00 45 1009.6
20190421192134 69 37 9.0 11.0 0.00 0.00 0.00 45 1009.3
20190421191133 69 76 3.0 16.0 0.00 0.00 0.00 46 1009.4
20190421190132 69 26 13.0 17.0 0.00 0.00 0.00 47 1009.4
20190421185131 68 44 7.0 15.0 0.00 0.00 0.00 47 1009.5
20190421184130 68 65 5.0 14.0 0.00 0.00 0.00 47 1009.4
20190421183129 68 13 4.0 17.0 0.00 0.00 0.00 49 1009.3
20190421182128 67 14 5.0 14.0 0.00 0.00 0.00 48 1009.4
20190421181127 66 5 4.0 12.0 0.00 0.00 0.00 49 1009.2
20190421180125 67 19 7.0 15.0 0.00 0.00 0.00 49 1009.4
20190421175125 66 61 5.0 12.0 0.00 0.00 0.00 49 1009.4
20190421174124 66 53 9.0 11.0 0.00 0.00 0.00 51 1009.6
20190421173123 65 84 8.0 11.0 0.00 0.00 0.00 50 1009.5
20190421172122 65 65 4.0 10.0 0.00 0.00 0.00 51 1009.5
20190421171121 64 53 3.0 10.0 0.00 0.00 0.00 51 1009.5
20190421170119 63 73 5.0 10.0 0.00 0.00 0.00 52 1009.6
20190421165118 63 87 7.0 11.0 0.00 0.00 0.00 52 1009.7
20190421164117 63 30 0.0 10.0 0.00 0.00 0.00 53 1009.6
20190421163117 62 43 1.0 9.0 0.00 0.00 0.00 53 1009.6
20190421162115 62 57 3.0 11.0 0.00 0.00 0.00 51 1009.4
20190421161114 62 36 4.0 13.0 0.00 0.00 0.00 53 1009.3
20190421160113 60 123 1.0 11.0 0.00 0.00 0.00 54 1009.4
20190421155112 60 57 7.0 14.0 0.00 0.00 0.00 53 1009.2
20190421154112 60 51 9.0 13.0 0.00 0.00 0.00 55 1008.9
20190421153110 59 74 4.0 13.0 0.00 0.00 0.00 55 1008.6
20190421152109 59 86 9.0 16.0 0.00 0.00 0.00 56 1008.4
20190421151109 58 66 11.0 17.0 0.00 0.00 0.00 57 1008.6
20190421150108 57 86 10.0 21.0 0.00 0.00 0.00 60 1008.5
20190421145106 56 86 9.0 15.0 0.00 0.00 0.00 63 1008.7